Tracking 31027 objects as of 19-Jul-2025
HD Live streaming from Space Station
objects crossing your sky now

NOAA 17 DEB

Track NOAA 17 DEB now!
10-day predictions


NORAD ID: 48765
Int'l Code: 2002-032DB
Perigee: 657.9 km
Apogee: 672.7 km
Inclination: 98.7 °
Period: 97.9 minutes
Semi major axis: 7036 km
RCS: Unknown
Launch date: June 24, 2002
Source: United States (US)
Launch site: AIR FORCE WESTERN TEST RANGE (AFWTR)

Note: This is SATELLITE DEBRIS
Your satellite tracking list
STARLINK-4010
Track 1 satellite(s)




NASA's NSSDC Master Catalog

Two Line Element Set (TLE):
1 48765U 02032DA  25199.45290880  .00011098  00000-0  18181-2 0  9999
2 48765  98.7021 196.0768 0010551 277.3427  82.6579 14.70904024224309
Source of the keplerian elements: AFSPC